TimeEDT,TemperatureF,Dew PointF,Humidity,Sea Level PressureIn,VisibilityMPH,Wind Direction,Wind SpeedMPH,Gust SpeedMPH,PrecipitationIn,Events,Conditions,WindDirDegrees,DateUTC
12:54 AM,55.0,52.0,89,29.92,10.0,Calm,Calm,-,N/A,,Clear,0,2012-10-01 04:54:00
1:54 AM,53.1,51.1,93,29.93,10.0,Calm,Calm,-,N/A,,Clear,0,2012-10-01 05:54:00
2:54 AM,52.0,50.0,93,29.92,9.0,Calm,Calm,-,N/A,,Clear,0,2012-10-01 06:54:00
3:54 AM,52.0,50.0,93,29.91,8.0,Calm,Calm,-,N/A,,Clear,0,2012-10-01 07:54:00
4:54 AM,52.0,48.9,89,29.92,9.0,Calm,Calm,-,N/A,,Clear,0,2012-10-01 08:54:00
5:54 AM,52.0,50.0,93,29.92,8.0,Calm,Calm,-,N/A,,Clear,0,2012-10-01 09:54:00
6:54 AM,53.1,50.0,89,29.94,9.0,Calm,Calm,-,N/A,,Clear,0,2012-10-01 10:54:00
7:54 AM,54.0,51.1,90,29.96,8.0,Calm,Calm,-,N/A,,Overcast,0,2012-10-01 11:54:00
8:54 AM,57.0,53.1,87,29.97,10.0,Calm,Calm,-,N/A,,Mostly Cloudy,0,2012-10-01 12:54:00
10:54 AM,64.0,53.1,67,29.99,10.0,ENE,3.5,-,N/A,,Mostly Cloudy,60,2012-10-01 14:54:00
11:54 AM,66.0,54.0,65,29.98,10.0,ESE,3.5,-,N/A,,Mostly Cloudy,120,2012-10-01 15:54:00
12:54 PM,68.0,55.0,63,29.97,10.0,Calm,Calm,-,N/A,,Overcast,0,2012-10-01 16:54:00
2:54 PM,68.0,55.9,65,29.94,10.0,ESE,3.5,-,N/A,,Overcast,110,2012-10-01 18:54:00
3:54 PM,69.1,57.0,65,29.94,10.0,ESE,3.5,-,N/A,,Overcast,110,2012-10-01 19:54:00
7:54 PM,64.0,61.0,90,29.95,8.0,Calm,Calm,-,N/A,,Overcast,0,2012-10-01 23:54:00
8:54 PM,64.0,61.0,90,29.96,9.0,Calm,Calm,-,N/A,,Overcast,0,2012-10-02 00:54:00
9:09 PM,64.4,60.8,88,29.95,9.0,Calm,Calm,-,N/A,,Overcast,0,2012-10-02 01:09:00
9:54 PM,64.0,60.1,87,29.96,10.0,Calm,Calm,-,N/A,,Overcast,0,2012-10-02 01:54:00
10:54 PM,64.0,59.0,84,29.95,10.0,Calm,Calm,-,N/A,,Overcast,0,2012-10-02 02:54:00
11:54 PM,64.9,59.0,81,29.95,10.0,Calm,Calm,-,N/A,,Overcast,0,2012-10-02 03:54:00